{"data":{"norad_id":67676,"intl_designator":"2026-023C","name":"COSMOS 2602","alt_names":[],"object_type":"PAYLOAD","status":"ACTIVE","operator":null,"country":"CIS","launch_date":"2026-02-05","launch_site_code":"PLMSC","launch_vehicle":null,"mission":null,"orbit_class":"UNKNOWN","rcs_meters":null,"size_class":null,"mass_kg":null,"dimensions":null,"purposes":[],"wikipedia_slug":null,"has_3d_model":false,"image_url":null,"decayed_at":null,"tle_current":{"epoch":"2026-05-25T03:36:24.904800Z","epoch_age_seconds":65585,"freshness":"FRESH","line1":"1 67676U 26023C   26145.15028825  .00011751  00000+0  47674-3 0  9999","line2":"2 67676  96.6304 209.3486 0017774 204.6641 155.3751 15.24592961 16663","mean_motion":15.24592961,"eccentricity":0.0017774,"inclination_deg":96.6304,"raan_deg":209.3486,"arg_perigee_deg":204.6641,"mean_anomaly_deg":155.3751,"bstar":0.00047674,"rev_number":1666,"period_min":94.451439619365,"perigee_km":479.79696983517,"apogee_km":504.21896115852,"semimajor_km":6870.1449654968,"source":"CELESTRAK","updated_at":"2026-05-25T13:38:07.183543Z"}}}